Location: Mahannah Oil Field
(37.4664°N, 96.6003°W)
Time: 14:39:17
(UTC+00:00)

Altair - Pass Details

Date: 27 January 2021
Orbit: 1501 x 1682 km, 47.2° (Epoch: 05 March)

Event Time Altitude Azimuth Distance (km) Brightness Sun altitude
Exits shadow 11:45:30 31° 269° (W) 2,611 8.1 -21.5°
Maximum altitude 11:50:52 63° 339° (NNW) 1,837 7.7 -20.4°
Drops below altitude 10° 12:00:58 10° 59° (ENE) 3,948 10.3 -18.4°
Sets 12:04:13 0° 63° (ENE) 4,933 11.0 -17.8°
